Notices

What's New in latest Release from April 7th, 2021:

- Updated Glossary, including Speed of Maximum Gust, and Total Hourly Precipitation

- Updated national and regional climate services offices contacts and prices information

- Addition of station inventory lists for 1981-2010, 1971-2000, and 1961-1990 Normals.

If you haven't already, please take our survey and provide feedback about our website: https://eccc.sondage-survey.ca/f/LanguageSelection.aspx?s=442ca660-fcf1-47c0-95a9-59707d6fd709

Hourly Data Report for December 02, 2016

CARBERRY CS
MANITOBA

49°54'20.900" N
99°21'26.800" W
383.50 m
5010547
71170
WZE

Download Data

Hourly Data (December 2016)
Hourly Data Report for December 2, 2016
TIME
LST
Temp Definition
°C
Dew Point Definition
°C
Rel Hum Definition
%
Precip. Amount Definition
mm

Wind Dir Definition
10's deg

Wind Spd Definition
km/h
Visibility Definition
km
Stn Press Definition
kPa
Hmdx Definition


Wind Chill Definition


Weather Definition


00:00 -3.2 -4.0 95 0.0 29 3   97.40   -4 LegendNANA
01:00 -3.3 -4.0 95 0.0   0   97.46     LegendNANA
02:00 -3.1 -3.7 95 0.0 6 5   97.51   -5 LegendNANA
03:00 -3.3 -3.9 95 0.0 18 1   97.52   -4 LegendNANA
04:00 -3.4 -4.0 96 0.0 7 4   97.53   -5 LegendNANA
05:00 -3.4 -4.0 96 0.0 9 1   97.56   -4 LegendNANA
06:00 -3.4 -4.0 96 0.0 14 4   97.61   -5 LegendNANA
07:00 -3.5 -4.1 96 0.0 14 5   97.63   -6 LegendNANA
08:00 -3.5 -4.1 96 0.0 13 6   97.66   -6 LegendNANA
09:00 -3.3 -3.9 96 0.0 16 5   97.70   -5 LegendNANA
10:00 -3.1 -3.9 95 0.0 18 7   97.70   -6 LegendNANA
11:00 -2.6 -3.5 93 0.0 20 6   97.71   -5 LegendNANA
12:00 -2.0 -2.9 94 0.0 21 6   97.72   -4 LegendNANA
13:00 -1.4 -2.7 91 0.0 23 8   97.67   -4 LegendNANA
14:00 -1.5 -2.8 91 0.0 23 12   97.66   -6 LegendNANA
15:00 -1.5 -2.7 91 0.0 24 11   97.66   -5 LegendNANA
16:00 -2.0 -2.9 93 0.0 23 9   97.69   -5 LegendNANA
17:00 -2.5 -3.5 93 0.0 23 9   97.71   -6 LegendNANA
18:00 -2.8 -4.0 91 0.0 24 9   97.68   -6 LegendNANA
19:00 -3.1 -4.1 93 0.0 20 7   97.66   -6 LegendNANA
20:00 -3.4 -4.4 93 0.0 17 6   97.62   -6 LegendNANA
21:00 -3.5 -4.5 93 0.0 16 6   97.57   -6 LegendNANA
22:00 -3.4 -4.4 93 0.0 15 10   97.54   -7 LegendNANA
23:00 -3.3 -4.3 93 0.0 15 12   97.50   -8 LegendNANA

Notes on Data Quality.

Legend

  • E = Estimated
  • M = Missing
  • NA = Not Available*
  • [empty] = Indicates an unobserved value
Date modified: